Location: Bannatyne
(13.0833°N, 59.5333°W)
Time: 12:04:21
(UTC+00:00)

Transit 2A - Pass Details

Date: 01 February 2020
Orbit: 600 x 959 km, 66.7° (Epoch: 19 February)

Event Time Altitude Azimuth Distance (km) Brightness Sun altitude
Rises 09:28:06 0° 306° (NW) 3,279 - -14.0°
Reaches altitude 10° 09:31:34 10° 283° (WNW) 2,428 - -13.2°
Exits shadow 09:33:42 14° 261° (W) 2,192 7.8 -12.7°
Maximum altitude 09:34:31 14° 251° (WSW) 2,183 7.9 -12.5°
Drops below altitude 10° 09:37:35 10° 219° (SW) 2,546 8.5 -11.8°
Sets 09:41:25 0° 197° (SSW) 3,546 9.4 -10.9°
